Home > Weather > Santa Clara > Past weeks

Flag for Cuba Past Weather in Santa Clara, Cuba — Yesterday and Last 2 Weeks

Now
86 °F

Passing clouds.


Feels Like: 97 °F
Forecast: 75 / 92 °F
Wind: 6 mph from East

Location: Cienfuegos - Las Villas

Current Time: Jul 28, 2016 at 10:37:24 AM

Latest Report: Jul 28, 2016 at 9:50 AM


Visibility: 6 mi

Pressure: 30.04 "Hg

Humidity: 75%

Dew Point: 77 °F

Location of Santa ClaraLocation

Past Weather in Santa Clara — Graph

°F

Santa Clara Temperature Yesterday

Maximum temperature yesterday: 93 °F (at 2:50 PM)
Minimum temperature yesterday: 75 °F (at 12:58 AM)
Average temperature yesterday: 82 °F

High & Low Weather Summary for the Past Weeks

 TemperatureHumidityPressure
High95 °F (Jul 26, 2:58 PM)100% (Jul 15, 3:58 AM)30.09 "Hg (Jul 15, 3:58 AM)
Low73 °F (Jul 15, 4:50 PM)47% (Jul 13, 4:58 PM)29.95 "Hg (Jul 25, 3:58 PM)
Average81 °F83%30.03 "Hg
* Reported Jul 13 8:50 AM — Jul 28 8:50 AM, Santa Clara, Weather by CustomWeather, © 2016

Note: Actual official high and low records may vary slightly from our data, if they occured in-between our weather recording intervals... More about our weather records

Advertising

Santa Clara Weather History for the Previous 24 Hours

Scroll right to see more
 ConditionsComfort  
Time TempWeatherWind HumidityBarometerVisibility
8:50 AM
Thu, Jul 28
81 °FPassing clouds.6 mph89%30.04 "Hg6 mi
7:58 AM77 °FWarm.3 mph94%30.01 "HgN/A
6:58 AM75 °FMild.3 mph94%30.01 "HgN/A
5:58 AM75 °FMild.3 mph100%29.98 "HgN/A
4:58 AM75 °FMild.3 mph94%29.98 "HgN/A
3:58 AM77 °FWarm.5 mph94%29.98 "HgN/A
2:58 AM77 °FWarm.5 mph94%29.98 "HgN/A
1:58 AM79 °FWarm.6 mph89%29.98 "HgN/A
12:58 AM77 °FWarm.7 mph94%30.01 "HgN/A
11:58 PM
Wed, Jul 27
77 °FWarm.5 mph94%30.01 "HgN/A
10:58 PM77 °FWarm.6 mph89%30.01 "HgN/A
9:58 PM79 °FWarm.6 mph84%30.01 "HgN/A
8:58 PM79 °FWarm.6 mph84%30.01 "HgN/A
7:58 PM81 °FWarm.6 mph74%29.98 "HgN/A
6:58 PM81 °FWarm.5 mph74%29.95 "HgN/A
5:58 PM81 °FWarm.8 mph79%29.98 "HgN/A
4:58 PM82 °FWarm.6 mph74%29.98 "HgN/A
3:50 PM91 °FScattered clouds.9 mph63%29.95 "HgN/A
2:50 PM93 °FScattered clouds.10 mph59%29.98 "HgN/A
1:50 PM91 °FScattered clouds.12 mph59%29.98 "HgN/A
12:50 PM90 °FScattered clouds.9 mph67%30.01 "HgN/A
11:50 AM90 °FScattered clouds.8 mph63%30.04 "HgN/A
10:50 AM88 °FScattered clouds.5 mph66%30.04 "HgN/A
Weather by CustomWeather, © 2016

See weather overviewHow to use our weather pages